GFSFLT2_850_rhum_003.txt.gz
RH
86 80 86 82 79 86 90 88 88 86 82 82 86 87 92 93 91 93 92 92 95 97 98 99 98 98 98
83 84 80 90 95 99 93 86 80 83 86 87 86 87 88 93 96 95 98 99 95 93 98 95 95 94 93
86 76 96 100 100 90 81 72 78 86 89 91 94 94 94 94 95 94 94 95 94 92 97 96 98 96 98
99 97 97 88 83 77 80 84 90 92 92 96 94 93 94 94 97 97 97 96 94 94 93 95 96 90 90
97 94 90 82 83 89 97 97 96 95 90 92 88 92 88 96 98 100 100 100 100 98 98 97 96 94 91
100 89 80 89 93 100 100 100 99 91 94 94 86 93 89 90 99 100 100 100 99 98 98 98 96 95 98
87 90 97 98 99 95 99 99 100 91 99 100 83 97 90 84 95 100 100 100 99 99 100 100 98 96 95
100 99 100 98 100 100 98 95 95 83 100 98 83 97 90 82 80 99 100 100 100 99 99 98 98 98 99
98 91 74 76 85 100 99 100 99 91 88 99 97 100 94 75 76 94 100 99 100 100 100 100 99 98 96
77 70 68 67 73 91 98 99 100 98 85 98 98 100 96 82 82 77 92 94 100 100 100 100 100 99 95
74 72 75 79 81 86 92 98 97 98 81 99 96 95 100 97 75 72 95 94 98 94 94 97 97 98 98
97 99 89 79 83 84 87 88 92 96 93 98 97 98 98 100 100 75 88 82 96 95 96 96 98 98 98
100 90 88 88 85 86 85 86 85 86 95 98 99 98 100 97 97 86 96 89 90 98 96 96 99 97 97
100 90 90 90 88 92 94 92 91 78 79 94 97 99 96 88 95 89 89 100 95 96 97 97 97 98 98
94 92 92 93 88 91 96 95 97 92 83 79 88 91 76 72 77 80 93 100 100 96 97 98 96 97 98
95 97 97 95 94 93 95 96 95 89 90 94 92 86 74 64 74 88 93 100 95 96 97 98 94 100 100
96 93 95 96 97 95 94 94 92 92 97 94 96 100 100 100 70 74 98 96 97 97 99 98 98 99 99

GFSFLT2_850_rhum_006.txt.gz
RH
63 67 72 72 71 78 81 87 81 74 76 78 82 87 91 91 92 90 92 89 92 93 93 96 98 99 100
75 75 73 78 87 86 82 71 67 64 73 85 90 91 91 92 94 94 95 96 98 96 98 96 96 96 98
78 75 85 93 88 78 71 67 70 76 78 84 88 93 95 94 92 91 93 94 96 95 98 96 94 95 90
88 96 95 82 74 67 68 76 81 84 83 91 89 90 90 87 92 96 96 95 97 97 97 96 96 96 95
98 93 84 72 66 74 86 89 86 90 84 84 78 83 87 90 92 94 94 96 98 99 99 100 99 99 97
95 86 71 70 80 91 100 99 94 85 87 85 89 89 89 88 90 95 97 99 100 99 99 98 100 98 98
84 76 83 87 90 94 94 97 96 88 97 89 88 88 87 82 92 99 100 100 100 100 100 99 99 98 99
87 90 94 93 98 98 98 96 95 95 93 94 86 91 87 75 69 66 96 100 100 100 100 100 99 99 99
100 100 99 100 100 100 95 98 98 94 96 95 89 95 86 69 73 75 89 96 97 98 99 98 99 100 99
93 93 94 96 100 100 96 97 100 99 89 97 97 100 96 84 76 60 68 72 87 97 97 97 98 98 95
95 94 94 94 99 97 97 99 99 98 78 100 99 100 100 97 79 67 77 79 82 83 91 90 99 98 97
100 99 99 93 85 85 82 84 91 96 88 94 98 100 100 99 100 72 70 72 84 92 94 93 94 98 100
100 100 100 86 86 89 84 87 85 80 81 84 99 98 100 100 100 99 98 79 84 98 97 97 97 96 97
100 100 100 97 91 93 97 92 95 76 76 81 93 100 98 100 100 97 70 100 97 96 98 100 97 98 98
100 100 98 99 88 90 95 97 99 95 84 79 86 100 99 98 97 75 91 94 94 97 96 98 98 98 99
95 98 97 95 94 91 95 98 100 96 100 95 99 100 95 85 89 92 90 96 96 95 98 98 98 95 99
98 96 96 96 96 94 94 96 94 96 100 100 100 100 98 98 72 69 97 93 98 99 99 98 98 96 98

GFSFLT2_850_rhum_009.txt.gz
RH
68 70 71 72 69 77 82 68 73 74 73 73 77 83 86 92 90 93 93 93 94 97 98 97 97 95 92
75 77 77 72 85 91 88 74 75 65 72 79 83 84 86 87 92 94 90 94 94 98 96 98 99 98 98
81 77 82 90 92 82 73 69 66 72 77 82 86 88 92 89 88 88 89 90 92 93 96 98 97 96 98
78 80 98 94 78 72 70 75 82 85 77 87 88 89 87 85 91 94 94 94 96 94 96 96 98 98 98
98 98 91 80 76 75 84 90 80 98 68 90 82 76 73 88 91 94 95 96 98 99 99 99 99 99 100
95 92 92 77 83 93 92 98 99 80 91 85 86 87 83 85 89 93 96 99 100 100 100 100 100 98 98
93 85 85 81 85 93 96 99 96 76 87 94 88 89 79 79 91 95 93 76 100 99 98 98 99 99 99
87 89 89 94 98 98 95 89 85 84 100 100 83 83 89 77 60 61 68 98 97 100 98 100 98 96 96
94 99 97 95 97 94 86 99 93 96 90 99 92 89 82 65 64 72 79 65 68 73 93 100 100 96 97
90 89 90 89 94 94 97 97 98 99 83 97 96 99 96 85 77 64 58 61 66 66 94 97 97 97 96
93 92 91 93 95 91 90 100 96 97 77 100 97 96 100 98 77 67 69 66 67 62 67 79 97 98 98
93 94 98 95 86 86 86 89 99 100 88 95 98 100 98 98 96 74 68 68 73 69 81 93 95 97 98
95 96 97 92 88 88 90 96 89 83 82 87 100 100 98 99 99 90 98 73 61 79 95 97 98 96 97
95 96 96 91 89 93 95 91 100 78 75 86 98 100 98 97 100 100 95 100 95 97 98 96 91 95 98
100 96 93 95 88 89 93 99 100 99 90 80 86 99 99 98 98 87 99 100 91 96 100 95 85 92 97
96 97 98 96 94 91 95 98 100 99 100 92 100 98 87 95 96 96 92 90 95 94 100 99 95 76 92
97 95 96 96 97 95 98 97 95 92 88 99 100 97 99 98 76 98 98 90 93 99 100 100 100 82 95

GFSFLT2_850_rhum_012.txt.gz
RH
66 77 79 79 69 68 80 86 74 77 80 82 79 85 87 90 91 89 95 96 98 97 98 98 98 98 98
84 82 83 67 71 87 85 72 72 72 77 80 86 89 90 92 91 95 96 95 95 98 97 98 97 97 97
85 76 71 77 95 77 72 78 74 74 81 84 91 92 95 92 90 90 93 94 93 94 97 96 95 99 98
85 82 88 96 78 84 81 79 76 72 71 59 82 60 93 84 91 97 98 98 96 95 98 96 98 99 99
89 96 95 86 91 87 82 77 78 80 87 56 72 62 60 61 65 72 100 97 99 99 100 100 99 98 98
99 88 96 87 88 84 80 96 99 85 92 64 74 63 65 71 69 96 100 100 100 100 100 100 100 100 100
92 90 88 91 90 91 99 99 94 76 87 72 75 81 73 72 67 80 95 99 96 99 100 100 100 100 100
95 93 95 94 98 98 100 98 82 74 95 98 78 80 77 73 65 61 61 71 98 97 92 100 100 99 100
94 100 100 100 100 97 92 98 96 84 86 100 84 86 80 70 68 72 76 87 64 65 79 99 100 100 100
82 72 70 76 82 92 99 99 96 92 86 96 94 100 98 90 78 67 64 63 66 67 68 69 69 94 97
78 77 76 77 82 86 88 99 97 94 77 99 96 98 100 97 82 70 74 68 72 66 64 63 75 87 100
88 81 83 84 85 86 84 87 89 97 83 95 96 99 97 97 98 80 76 73 81 77 71 71 76 80 96
88 83 88 88 88 86 80 86 88 82 80 83 100 96 97 99 100 91 94 78 77 84 86 84 88 92 99
93 90 91 91 88 90 95 93 96 80 74 80 89 100 99 97 100 96 78 99 90 90 91 88 82 88 92
95 94 93 96 89 90 94 97 100 93 85 76 82 90 88 94 96 83 87 99 98 91 98 100 81 99 98
94 95 97 96 96 91 94 94 97 92 91 84 90 90 85 95 96 95 91 91 91 98 99 100 100 90 96
96 96 97 95 96 93 95 98 95 92 87 90 96 99 99 98 91 100 96 93 98 93 93 100 100 96 88

GFSFLT2_850_rhum_015.txt.gz
RH
50 54 66 54 52 61 62 70 64 59 89 90 89 90 90 92 90 92 97 94 98 99 98 98 97 98 98
70 73 65 63 72 78 71 61 66 60 84 89 93 94 96 97 98 93 93 96 99 99 98 94 93 97 98
90 82 73 78 85 76 70 67 71 66 72 62 78 92 96 96 97 96 97 100 98 100 100 98 99 99 98
93 83 87 91 81 81 75 82 69 74 74 63 87 56 58 62 71 66 71 100 100 100 99 98 98 98 99
87 90 99 87 82 87 86 79 82 79 94 77 70 57 57 60 62 60 69 100 100 100 100 99 98 100 100
95 97 86 83 90 92 88 96 100 93 85 75 62 60 63 67 66 80 84 100 100 100 100 100 100 100 99
90 85 95 88 90 96 98 99 95 83 85 88 59 67 71 72 65 61 62 79 98 100 100 100 100 100 100
87 90 94 94 98 100 97 98 87 76 77 100 81 75 71 71 62 58 61 67 99 100 100 99 99 100 100
78 98 100 90 92 100 90 97 89 84 72 93 83 85 80 69 62 65 70 75 69 68 92 98 100 100 100
90 74 69 70 78 87 94 100 97 100 73 99 92 94 99 86 83 72 64 64 65 70 72 81 89 100 100
77 70 69 73 80 83 86 93 96 99 75 100 96 93 100 97 87 74 73 68 72 69 69 74 77 84 100
74 74 77 80 81 81 82 85 86 89 82 88 96 98 97 96 95 83 79 73 74 72 72 70 71 74 84
82 82 84 84 82 82 79 82 84 77 77 84 97 96 99 98 100 90 92 76 71 73 81 84 79 74 79
90 85 85 85 83 86 90 93 94 77 72 81 88 97 95 95 100 96 79 97 77 79 88 92 91 90 85
91 89 87 89 85 87 90 96 100 93 83 74 81 92 91 92 93 82 78 81 78 85 99 100 88 80 83
91 91 93 92 91 89 95 96 96 92 90 85 91 90 83 90 94 89 81 87 86 93 95 100 97 79 91
93 93 93 93 97 93 94 96 94 92 86 92 96 98 98 100 87 98 96 91 98 96 96 100 100 92 88

GFSFLT2_850_rhum_018.txt.gz
RH
42 44 48 41 39 42 48 51 43 49 54 92 97 97 95 94 94 96 97 98 98 98 98 99 98 98 98
65 60 60 56 64 64 48 41 51 51 53 95 93 97 98 100 100 100 97 99 98 98 99 99 96 98 95
85 84 76 68 68 58 55 52 55 55 56 58 53 58 92 100 98 97 97 98 99 100 100 100 100 99 99
88 85 81 76 79 76 57 55 61 60 57 66 52 70 56 53 53 57 58 63 98 100 100 100 99 100 99
97 90 87 84 76 68 70 75 80 65 70 68 61 61 48 51 57 58 54 82 100 100 100 100 100 99 100
95 92 88 79 70 84 90 96 100 74 71 66 66 65 58 61 61 58 70 96 100 100 100 100 100 100 100
96 88 87 70 90 95 97 99 92 74 81 78 73 70 64 66 62 60 58 61 77 99 100 100 100 99 99
86 88 90 95 98 100 96 91 91 84 80 89 75 72 72 66 59 58 57 61 76 100 100 100 100 100 100
79 83 89 90 82 90 82 97 90 87 77 88 74 78 76 70 63 62 65 69 73 68 88 100 100 100 99
67 66 65 67 75 83 89 96 96 97 84 98 94 94 99 91 83 74 69 67 67 69 76 91 99 100 100
66 63 67 71 74 78 83 90 92 96 77 100 96 93 100 96 89 75 73 70 72 70 68 69 74 93 100
70 73 77 74 76 78 81 84 88 90 83 96 96 97 98 94 92 78 79 77 76 72 70 67 68 74 93
79 79 82 80 80 81 79 81 82 78 79 94 96 96 99 98 100 90 85 75 75 71 72 75 80 83 81
87 86 84 82 82 86 87 88 88 73 76 82 93 97 95 95 99 92 80 98 74 72 78 83 82 83 90
90 90 89 90 88 89 90 90 95 89 79 73 81 90 88 90 93 81 77 78 76 81 91 91 82 82 83
92 92 94 95 93 88 93 94 94 92 88 83 86 87 80 85 95 89 81 86 83 93 100 100 97 86 90
91 91 95 96 97 91 92 96 95 93 88 88 95 98 98 100 79 96 97 94 98 97 100 100 100 79 85

GFSFLT2_850_rhum_021.txt.gz
RH
33 33 38 32 30 30 32 32 28 28 37 46 88 98 99 100 100 100 100 98 99 99 99 99 99 100 100
45 50 51 41 51 52 43 31 33 38 42 47 86 85 100 100 100 100 100 100 96 94 98 95 99 99 99
66 71 67 59 60 52 43 35 43 48 50 52 54 59 95 94 98 96 95 95 96 97 98 99 100 100 100
73 82 87 69 73 63 54 48 64 57 53 57 56 56 50 50 52 50 52 54 60 94 100 100 100 100 100
95 97 84 83 78 73 73 82 82 59 51 55 55 51 49 54 54 53 54 53 67 100 100 100 100 100 100
96 98 92 86 81 78 94 98 100 75 58 56 62 57 58 60 56 57 58 62 97 100 100 100 100 98 100
99 93 95 79 86 98 98 96 93 73 70 67 71 63 62 63 58 57 55 55 69 99 100 100 100 99 99
88 85 84 95 95 97 98 87 77 74 78 80 67 70 72 66 59 55 57 61 64 75 100 100 100 99 99
80 77 85 87 82 80 74 82 78 80 81 90 76 84 78 71 66 65 67 67 67 70 88 100 100 100 99
70 71 67 65 71 78 82 88 94 98 90 99 89 94 97 82 79 79 71 66 65 68 71 78 98 100 99
69 59 66 69 72 73 79 87 93 97 77 100 93 90 100 98 86 76 73 69 72 67 68 72 79 97 100
69 72 73 71 72 74 78 82 87 90 80 88 96 99 98 93 90 77 82 82 77 75 76 70 71 77 94
80 77 80 81 81 79 77 80 79 76 78 81 90 94 99 98 99 91 86 76 78 76 77 78 79 78 79
85 84 85 85 84 90 86 83 81 69 75 82 85 95 95 96 100 91 81 98 75 71 76 82 85 86 84
88 89 88 90 89 87 88 88 92 85 74 73 82 88 89 91 93 81 80 80 72 79 89 92 81 81 81
92 93 94 95 91 88 94 94 92 88 85 80 83 86 80 81 94 92 86 85 81 89 94 100 86 83 88
93 95 97 95 96 92 92 95 93 91 86 86 92 99 97 100 72 92 96 92 100 100 100 100 100 86 95

GFSFLT2_850_rhum_027.txt.gz
RH
34 31 25 24 23 24 23 25 24 20 21 21 25 42 90 98 99 98 99 100 100 100 100 100 100 100 99
40 25 26 27 31 27 32 32 36 27 23 25 39 43 46 57 82 97 100 100 98 96 98 98 95 96 96
35 32 33 32 35 43 49 48 38 26 23 42 45 46 46 46 61 82 69 70 86 95 98 100 100 100 98
35 49 52 54 72 72 69 76 51 25 39 50 47 48 47 50 52 50 49 49 51 52 96 100 100 100 100
68 73 79 90 100 99 92 84 68 43 48 48 47 46 44 49 49 50 52 52 52 60 100 100 100 100 99
92 80 95 100 93 93 95 100 100 80 66 72 61 49 50 54 53 53 52 54 54 56 86 98 100 100 100
95 98 97 99 97 93 95 99 100 85 76 70 59 54 58 55 54 54 52 54 56 58 60 76 100 100 100
87 92 97 97 98 100 98 92 74 69 72 96 61 69 73 58 53 52 56 58 60 60 63 92 100 100 100
80 78 80 76 68 70 70 86 89 85 75 95 73 88 76 58 56 59 60 63 64 65 67 68 82 100 100
47 44 46 54 70 78 85 90 95 95 85 98 87 88 100 72 71 68 61 61 61 63 65 68 72 100 100
40 46 65 69 74 80 85 91 94 92 81 100 87 84 100 94 65 67 69 67 67 65 70 75 80 85 98
59 68 72 73 74 78 82 88 92 86 82 94 95 95 99 94 87 72 72 69 70 66 72 71 72 77 83
74 74 77 78 79 80 81 82 81 78 80 85 90 90 97 98 99 83 80 66 67 71 72 73 75 78 81
81 82 83 83 82 86 82 84 80 71 73 75 83 93 92 90 98 80 74 90 75 76 84 81 83 84 82
87 87 86 85 83 84 86 85 86 79 71 73 81 85 83 92 84 77 83 88 80 85 98 93 83 86 79
88 90 89 87 85 82 88 92 89 81 78 76 80 84 79 80 85 81 86 99 92 98 100 100 100 95 89
92 93 93 91 88 87 92 94 85 84 84 86 92 100 98 99 79 92 95 85 88 88 86 93 100 84 92

GFSFLT2_850_rhum_030.txt.gz
RH
84 77 82 84 85 70 30 33 34 23 20 22 18 18 24 67 85 98 98 98 100 100 100 100 100 100 100
95 94 99 96 43 23 26 25 43 29 23 24 20 21 31 38 52 84 85 95 98 100 100 98 99 99 98
98 96 56 29 25 19 22 55 67 40 34 20 20 34 40 42 44 46 42 58 86 98 100 100 100 100 100
63 38 40 36 46 63 79 90 87 81 39 43 44 42 40 43 44 44 46 48 49 51 63 94 97 99 100
59 67 90 90 84 88 91 88 88 90 80 83 84 68 56 48 43 44 47 51 54 54 54 97 100 100 100
98 97 93 94 86 90 94 98 95 85 88 90 88 80 75 59 47 50 53 54 53 52 57 87 96 100 100
97 92 88 93 98 99 100 100 100 94 97 93 90 84 84 56 51 50 50 50 51 53 56 73 100 100 100
98 98 98 98 100 100 100 98 94 92 93 95 83 88 85 57 52 50 50 54 56 58 60 77 99 100 100
53 46 45 48 57 97 84 100 100 95 94 97 83 92 89 59 58 59 58 58 59 63 71 78 84 100 100
78 50 38 41 56 69 77 93 100 100 94 88 80 98 100 78 77 76 69 71 70 69 65 63 65 97 100
33 42 58 67 71 76 82 88 87 85 76 100 86 91 100 100 81 85 79 74 78 69 71 70 73 93 100
50 66 74 73 76 78 81 84 87 80 77 92 96 93 98 97 85 70 79 69 66 62 70 74 79 79 80
66 68 73 76 78 79 79 80 78 75 76 81 89 89 93 93 90 79 85 61 62 68 78 82 83 88 90
81 79 80 80 78 80 79 79 81 76 78 81 83 90 89 91 95 99 83 98 70 75 80 84 85 94 89
80 81 82 83 82 84 83 85 88 84 83 80 86 94 93 99 88 80 85 85 94 94 98 94 89 82 86
89 91 91 92 89 86 88 92 94 91 89 79 82 92 84 91 94 86 96 94 85 100 100 100 100 95 97
91 92 94 93 92 88 89 92 94 96 90 84 89 100 100 100 96 100 96 82 90 100 95 100 100 100 100

GFSFLT2_850_rhum_033.txt.gz
RH
76 64 74 80 91 96 96 95 70 27 36 20 10 9 20 14 11 22 64 84 96 97 99 99 100 99 98
94 97 98 100 100 99 92 60 53 34 12 12 17 45 26 13 19 40 33 71 94 98 100 100 100 100 100
100 99 99 97 89 60 59 26 20 37 51 63 62 39 19 30 49 41 46 67 85 89 94 97 100 100 100
99 98 91 58 40 38 47 72 82 61 46 49 59 28 39 64 52 40 42 44 47 60 82 84 87 93 98
94 45 40 68 82 80 80 81 79 65 59 56 48 77 68 56 46 46 52 59 70 72 74 93 98 100 100
60 78 90 78 86 85 87 86 78 40 73 55 67 59 56 50 50 56 67 72 67 64 72 96 100 100 100
84 73 90 88 89 84 71 88 91 67 90 64 64 64 57 56 57 59 62 65 66 71 72 95 99 100 100
66 78 83 90 89 92 94 90 74 71 90 87 74 70 62 59 57 57 56 58 59 58 59 67 99 100 100
49 37 33 32 36 39 36 60 63 76 69 82 67 80 66 56 55 58 63 66 65 64 64 67 72 94 100
73 66 48 36 42 55 63 69 83 98 89 84 80 88 96 64 68 66 61 62 64 67 68 68 83 100 100
36 39 52 67 73 77 80 85 86 86 72 98 82 83 96 98 65 63 68 66 67 65 68 69 68 86 100
45 60 70 70 72 72 74 78 81 78 75 86 93 87 94 91 84 67 70 70 72 64 69 73 77 83 91
66 67 69 68 70 74 74 74 74 71 72 78 84 84 94 100 97 76 83 62 61 66 70 79 84 81 98
70 70 73 75 77 82 83 82 81 72 76 82 86 98 100 100 100 95 75 100 70 69 75 78 80 84 90
77 78 80 83 84 86 85 86 88 80 75 77 81 94 100 100 100 84 90 98 97 97 100 97 93 87 88
83 83 84 86 88 86 86 86 85 82 81 81 89 98 100 97 96 92 100 100 99 99 100 100 98 90 95
81 84 85 87 91 89 88 89 85 86 85 88 91 98 100 100 94 97 94 92 94 98 88 88 100 91 97

GFSFLT2_850_rhum_036.txt.gz
RH
94 95 99 95 95 96 89 100 100 99 89 71 54 31 16 12 17 28 10 23 80 95 99 99 99 100 99
99 98 100 99 100 99 100 100 97 68 61 34 30 40 30 26 24 15 19 69 94 98 98 100 100 100 100
100 100 100 99 100 99 99 90 38 26 24 50 36 34 29 50 57 54 67 70 80 97 98 98 99 100 100
99 99 99 99 91 48 39 46 40 32 58 48 29 40 28 48 55 58 65 78 91 96 97 96 94 92 98
96 99 84 48 60 63 67 67 47 47 51 20 31 29 38 45 48 51 53 74 95 96 94 98 100 100 99
51 32 54 77 68 72 75 72 58 24 32 17 47 42 48 52 53 54 77 95 98 97 97 100 100 100 100
27 38 52 71 71 59 51 48 33 30 51 40 53 50 54 53 55 57 59 63 68 74 87 92 99 100 100
35 42 49 52 56 52 42 31 29 37 60 55 55 56 55 53 55 56 58 61 65 67 74 90 99 100 100
54 34 32 29 28 27 25 36 48 52 61 74 64 66 54 48 51 56 60 62 63 61 61 69 97 100 100
43 40 35 29 35 48 59 63 72 75 82 77 69 76 73 49 51 56 56 59 61 63 64 66 86 100 100
30 30 36 52 62 68 72 73 77 79 70 95 71 71 88 82 54 56 58 59 63 62 61 64 67 82 100
32 48 60 64 70 74 77 76 79 76 73 84 82 79 87 87 82 56 58 62 64 60 60 68 70 74 81
57 63 69 71 72 75 79 80 75 70 68 72 79 81 90 99 100 72 88 65 60 67 68 76 72 73 76
67 70 72 75 78 81 82 82 78 66 66 71 78 85 86 95 100 99 81 98 69 68 82 79 74 75 77
71 73 75 77 79 83 85 84 82 72 65 69 75 84 89 100 100 83 79 79 77 81 89 88 75 74 78
78 81 82 86 88 88 90 89 85 79 76 77 83 83 90 87 88 83 91 91 86 90 99 100 87 78 77
78 82 87 90 93 91 91 93 89 88 84 86 89 95 100 99 82 91 97 98 93 87 82 83 89 79 77

GFSFLT2_850_rhum_039.txt.gz
RH
98 99 100 98 100 100 100 99 100 100 97 100 99 83 55 45 45 70 70 68 88 95 97 97 98 97 100
100 99 100 100 100 100 100 99 100 100 100 93 77 41 60 56 45 42 66 97 96 99 100 100 100 100 100
100 99 100 99 100 100 100 100 100 87 48 37 47 47 35 27 42 74 96 96 97 96 98 99 99 100 100
99 99 100 100 99 100 98 67 40 44 42 35 46 30 28 27 30 48 50 49 48 63 86 93 92 96 99
100 100 100 99 89 60 54 46 36 51 42 33 27 23 31 39 44 48 50 51 56 85 95 97 99 100 100
98 97 63 52 54 61 53 55 37 43 24 16 32 37 43 48 50 51 52 55 60 87 96 99 96 100 100
48 52 61 60 58 54 58 58 46 37 40 31 40 41 47 47 50 52 54 56 59 62 69 93 100 100 100
39 44 50 63 75 68 54 46 32 30 50 42 46 47 47 48 50 50 56 59 60 62 62 62 66 94 100
70 64 56 55 52 38 30 31 44 49 58 61 58 55 45 42 47 52 56 58 60 59 60 62 63 65 78
53 39 33 29 29 36 53 60 68 66 70 69 66 70 57 46 50 54 54 57 57 62 63 63 60 61 61
25 26 29 39 56 64 68 69 71 74 75 85 73 79 100 74 53 51 53 57 60 59 57 58 62 67 69
30 42 54 60 63 68 72 74 75 75 76 85 88 87 97 95 82 56 56 59 62 56 56 58 66 72 79
60 66 67 65 66 69 73 76 76 75 74 80 83 83 94 93 88 66 70 59 60 63 62 66 68 68 69
68 69 70 72 74 77 74 74 72 68 72 75 79 85 85 86 94 72 66 89 63 66 75 69 71 70 69
71 73 74 76 76 78 81 82 85 81 75 76 80 90 89 90 95 74 71 71 68 71 79 75 68 68 72
73 74 74 75 77 80 85 90 90 86 84 84 84 90 89 79 80 76 76 82 74 78 84 96 82 75 73
74 74 75 76 80 84 88 92 92 92 88 88 91 98 100 98 79 85 84 80 81 75 76 82 85 80 80

GFSFLT2_850_rhum_042.txt.gz
RH
100 100 100 100 100 100 100 100 100 100 100 100 99 99 99 99 96 82 95 97 91 95 95 96 97 96 93
100 100 100 100 100 100 100 99 100 100 98 99 99 98 94 84 97 85 78 80 84 92 96 98 98 99 99
100 100 100 100 100 100 99 99 99 99 98 95 58 79 90 72 62 71 59 80 85 94 91 96 96 94 100
99 100 100 99 100 99 100 98 98 87 59 54 47 40 40 30 24 22 21 24 35 39 43 54 74 92 97
100 100 100 100 99 99 97 80 60 50 40 46 32 23 19 21 26 32 37 42 45 46 69 93 98 100 99
100 100 96 96 66 58 56 48 52 46 35 25 26 20 33 42 42 42 47 49 50 52 60 92 100 100 99
82 56 50 53 56 52 46 45 46 40 41 16 32 36 45 49 50 50 51 54 56 58 58 62 82 72 76
30 37 44 48 52 52 52 49 39 23 33 42 41 44 46 50 49 48 51 56 58 56 59 59 57 55 55
45 51 56 58 72 66 50 42 35 45 55 57 52 50 45 44 44 48 54 56 58 59 58 58 57 57 55
58 53 41 33 41 45 43 58 71 64 61 66 67 71 57 52 55 58 58 60 58 59 61 59 59 59 56
28 28 32 37 45 60 67 67 67 75 83 99 85 94 99 68 49 50 54 53 53 56 60 59 55 58 56
29 35 45 58 65 66 69 72 73 74 78 88 87 89 100 99 65 48 54 54 54 56 57 61 62 63 70
46 60 66 65 65 67 71 74 74 76 81 86 88 85 94 96 88 62 65 51 56 59 61 63 65 65 62
69 69 70 72 74 76 74 76 75 73 79 84 87 89 86 83 92 76 67 80 59 62 67 63 65 64 59
72 72 72 72 73 76 77 78 81 77 74 79 88 91 90 88 89 77 70 70 68 70 71 66 62 60 59
71 71 71 72 72 72 77 84 86 83 81 82 86 89 88 85 82 74 76 76 71 72 77 80 64 59 64
68 68 69 69 71 70 71 81 87 88 85 86 86 90 96 91 79 80 83 77 79 78 75 75 73 65 70

GFSFLT2_850_rhum_048.txt.gz
RH
95 94 98 98 93 96 90 98 100 99 99 99 98 99 99 99 99 98 100 100 99 99 98 98 98 98 98
99 97 98 99 100 100 94 95 98 99 99 98 100 99 99 99 99 99 99 99 98 100 97 93 96 96 98
98 98 98 98 99 100 98 99 98 97 99 100 98 98 99 99 99 100 97 93 87 72 43 61 82 96 96
99 99 99 98 97 99 99 99 99 98 96 96 98 98 98 89 85 80 54 41 31 26 24 29 41 52 82
100 99 98 96 95 94 98 98 95 91 84 70 55 44 42 39 36 28 20 16 17 24 28 34 44 85 100
96 95 94 90 80 68 58 48 45 36 30 23 29 19 21 20 17 16 22 31 37 41 45 70 82 81 93
40 36 33 35 37 35 36 35 31 30 30 16 18 17 22 25 29 33 36 40 43 47 50 56 73 74 87
25 33 37 39 42 40 40 37 33 28 26 18 26 36 40 42 41 42 43 44 46 48 49 51 50 49 49
34 43 47 59 65 49 42 40 34 32 50 57 52 47 44 42 43 43 43 46 47 47 49 53 55 56 52
30 29 25 26 30 31 36 36 48 59 63 65 60 63 62 56 56 59 60 58 57 57 61 59 58 58 52
22 22 24 26 29 34 43 54 59 64 72 72 72 75 83 79 56 54 55 58 63 64 60 58 59 61 55
24 27 33 44 54 60 63 65 66 68 75 81 81 83 88 82 69 58 58 56 57 55 56 56 57 60 58
38 49 56 59 61 64 68 71 72 73 77 82 84 85 88 85 81 69 67 58 62 54 55 56 60 64 61
54 60 61 60 62 67 68 67 64 67 76 85 89 92 88 85 87 77 70 75 67 68 70 66 64 63 62
57 62 61 60 61 66 66 65 65 64 63 67 80 90 86 82 81 77 75 74 72 71 74 73 68 65 64
44 48 52 54 55 56 56 57 58 58 60 69 86 92 86 74 77 74 75 77 72 72 74 75 69 62 63
35 38 42 43 45 46 48 50 52 59 75 89 93 96 96 87 72 83 79 73 73 73 75 75 70 60 62

GFSFLT2_850_rhum_051.txt.gz
RH
99 98 96 95 93 88 86 99 100 100 100 100 98 98 98 99 99 97 92 98 99 98 99 98 99 99 100
94 92 92 91 92 94 92 91 90 95 99 96 99 100 98 97 93 98 99 98 99 99 99 99 99 98 98
92 93 92 89 86 86 87 89 91 89 94 91 89 92 95 97 98 99 99 100 100 98 94 90 77 91 96
94 100 99 92 89 88 87 87 87 90 91 90 90 91 92 91 91 91 94 94 86 77 58 40 29 59 79
99 98 94 92 90 87 87 84 79 76 75 73 68 61 52 48 44 41 41 39 35 25 19 19 22 45 69
92 92 84 74 57 43 36 33 34 31 28 26 26 20 18 17 16 14 14 14 16 23 30 35 43 92 100
21 22 22 25 27 28 30 32 31 30 26 16 17 18 19 21 24 27 30 34 38 40 42 43 57 68 79
20 22 24 28 28 30 35 33 27 28 25 25 33 44 46 44 41 42 42 43 45 46 47 48 50 62 54
19 21 26 29 27 30 33 29 27 33 47 54 52 48 47 48 49 48 49 48 47 48 48 48 50 51 49
21 20 20 21 22 24 27 30 42 54 57 60 59 63 60 56 54 55 55 55 52 50 53 57 60 61 52
19 19 20 23 27 33 44 55 61 65 66 68 69 73 76 69 55 59 59 62 67 63 61 62 63 62 56
23 26 32 40 52 58 60 62 64 68 77 79 77 79 85 81 66 62 64 64 65 66 68 64 62 62 63
35 46 54 58 58 60 62 64 66 68 70 74 79 80 81 81 73 70 70 65 67 68 70 71 72 71 67
43 52 58 58 58 59 63 63 58 61 67 70 71 73 73 75 78 70 74 79 72 72 73 69 68 68 68
38 44 48 51 52 56 57 56 54 53 55 57 61 69 75 80 80 76 72 72 70 70 75 71 67 66 68
30 34 36 39 41 42 44 45 47 49 51 56 73 91 88 78 77 71 73 73 71 72 72 70 57 59 62
26 29 31 33 35 37 39 42 44 48 60 83 90 95 97 92 75 79 78 74 75 74 77 74 69 58 64

GFSFLT2_850_rhum_054.txt.gz
RH
97 96 96 94 91 89 86 81 86 98 99 100 100 99 99 99 99 99 100 99 98 99 100 98 98 98 100
98 94 90 89 86 84 84 83 84 99 98 99 99 96 93 86 100 99 98 92 88 91 92 95 98 99 99
97 96 95 92 87 84 82 80 83 86 83 86 87 83 80 82 83 84 82 90 92 91 88 99 100 100 99
98 97 99 92 87 84 85 82 80 81 83 85 85 85 87 88 88 89 92 93 92 92 94 93 83 60 49
100 99 96 95 89 81 70 57 48 45 47 48 52 51 46 48 52 55 60 64 63 50 44 36 26 21 19
86 87 75 51 29 26 24 22 40 24 18 17 15 14 15 14 14 15 16 16 17 15 14 14 18 24 42
22 24 27 23 23 26 26 28 50 38 17 17 16 16 17 17 17 18 19 20 21 25 30 33 37 47 96
17 21 23 24 23 24 28 28 31 40 21 31 42 43 45 42 38 39 40 41 41 41 41 42 46 64 87
17 17 16 16 17 24 32 34 46 52 44 50 56 46 46 46 47 45 46 46 45 44 45 46 60 86 88
20 18 17 18 19 21 23 27 40 62 51 55 55 58 57 56 52 52 54 52 52 52 51 50 52 54 57
19 19 19 22 26 33 42 50 55 58 59 63 65 68 70 64 57 58 58 60 62 62 61 58 54 58 62
22 25 32 40 48 52 54 56 59 63 70 68 67 70 73 67 61 64 66 62 63 62 64 64 64 62 58
30 39 47 51 54 54 54 55 59 61 63 66 68 68 68 67 62 63 67 64 68 68 71 70 67 67 68
33 41 48 51 52 52 54 55 53 54 54 58 60 61 60 61 64 64 72 78 74 74 75 68 66 66 66
26 32 38 40 43 44 45 46 45 45 50 53 51 54 60 70 77 75 74 78 73 71 76 72 66 64 63
22 25 29 31 33 35 36 37 39 41 43 46 54 74 86 80 80 71 74 74 76 75 74 73 64 65 68
23 24 26 28 29 31 34 36 38 41 46 61 83 92 95 95 91 85 78 76 78 75 76 79 77 66 72

GFSFLT2_850_rhum_057.txt.gz
RH
94 91 93 86 86 84 82 80 84 94 99 100 99 99 98 100 100 99 100 98 97 96 95 97 98 98 99
99 98 91 85 84 83 82 82 80 83 100 98 98 97 92 87 92 93 94 98 97 98 100 94 94 99 100
99 95 87 87 87 84 82 81 79 81 85 85 92 92 91 87 84 82 83 87 92 89 82 88 93 93 94
98 97 98 84 86 83 83 81 78 78 79 80 82 84 84 84 84 83 82 82 83 84 85 85 85 89 96
100 100 98 99 90 77 55 36 34 21 21 21 21 24 27 32 40 48 54 55 63 73 78 73 63 49 40
85 93 96 67 46 31 23 19 30 40 19 13 12 12 11 11 11 11 11 12 14 16 18 19 20 18 15
22 49 44 35 24 22 23 24 36 26 16 12 17 15 18 18 16 18 18 17 17 14 13 15 20 25 30
15 18 20 21 23 26 23 21 22 47 24 24 34 34 36 37 34 37 36 36 37 37 36 36 35 36 38
13 14 14 14 16 19 20 24 24 55 42 44 44 39 40 43 43 44 43 45 46 45 45 44 44 44 48
13 13 13 13 15 16 18 20 31 53 62 54 48 52 49 62 50 50 52 53 53 53 50 48 47 48 46
15 16 17 18 20 26 34 42 47 52 54 56 55 57 58 53 47 53 55 55 56 56 55 56 57 58 52
17 21 25 29 36 42 45 48 50 52 59 60 58 60 62 55 51 56 58 56 58 57 60 61 60 59 60
21 26 32 40 45 47 48 48 50 52 54 55 54 56 58 56 55 52 54 55 65 68 68 66 62 62 62
25 32 37 42 46 46 45 47 45 45 44 47 49 52 52 52 54 52 59 71 70 72 73 66 62 62 62
22 26 30 36 36 37 37 37 38 38 40 46 46 50 49 51 59 66 70 72 71 70 73 74 66 64 63
19 21 24 26 28 29 30 31 32 34 37 41 50 58 60 67 77 74 74 74 76 79 78 83 70 63 67
19 21 22 23 26 27 29 31 33 36 41 50 64 84 100 95 81 90 81 83 83 84 81 81 80 68 75

GFSFLT2_850_rhum_060.txt.gz
RH
90 92 90 86 83 81 81 79 76 76 85 100 98 96 95 90 100 100 100 100 100 99 99 100 99 99 99
88 94 92 86 86 84 83 79 77 76 83 97 98 98 94 88 86 89 92 92 92 94 96 96 100 99 92
98 100 89 88 90 89 84 80 78 76 80 81 84 88 91 90 87 86 84 82 82 88 93 94 95 88 90
100 99 99 88 85 81 83 76 70 60 51 49 61 72 79 79 79 80 81 82 84 85 84 84 84 84 86
99 99 98 91 64 51 34 21 20 15 18 24 16 15 18 17 19 22 26 30 41 54 71 76 80 85 86
66 61 59 55 40 21 14 12 14 18 17 13 10 12 12 12 11 10 9 9 10 12 14 17 18 19 18
16 24 31 21 22 16 12 13 14 14 14 12 13 17 18 22 22 27 25 23 22 22 19 14 13 14 16
12 15 15 15 15 13 12 12 15 18 21 22 26 29 33 34 34 37 37 36 37 38 38 37 36 36 35
11 11 11 11 11 11 10 11 13 28 29 37 34 34 36 39 43 43 42 42 44 46 45 45 44 43 41
13 13 12 12 11 10 11 15 22 36 49 45 41 43 43 41 47 47 47 48 50 52 52 52 52 51 48
13 13 13 13 15 18 25 34 41 45 46 48 48 50 50 45 40 45 45 49 52 52 53 54 56 55 53
13 15 16 19 26 34 41 45 46 47 50 49 49 51 53 45 41 47 50 51 52 53 58 59 60 60 60
14 17 20 26 34 39 42 44 45 46 49 49 47 48 50 50 49 45 44 44 56 65 69 67 63 62 60
14 17 22 25 32 37 38 38 36 38 39 40 41 44 46 47 49 43 46 57 64 70 72 65 63 62 61
15 16 19 21 22 26 28 29 30 30 31 35 38 41 42 44 46 49 62 67 69 75 78 70 64 60 62
16 16 17 18 21 23 24 26 27 28 31 35 39 44 51 59 66 65 68 69 70 79 82 84 77 64 66
18 18 18 19 21 22 24 26 28 31 36 44 58 74 92 99 72 70 77 69 72 69 73 72 76 67 68

GFSFLT2_850_rhum_063.txt.gz
RH
100 98 99 97 83 83 84 81 78 76 75 75 91 95 92 87 89 98 100 100 100 100 100 100 100 98 98
94 99 98 87 91 84 86 80 77 73 70 76 80 86 93 91 86 88 95 95 97 98 100 98 98 98 98
89 98 94 91 88 85 86 83 79 75 68 67 72 76 82 86 87 88 89 88 85 84 83 82 85 88 94
99 100 95 83 83 83 82 78 68 49 30 23 19 26 40 59 69 74 78 80 80 80 79 79 79 80 84
97 99 96 77 62 59 46 28 17 12 14 21 16 13 12 10 12 14 15 18 22 27 37 50 63 71 80
84 77 58 53 46 33 19 15 13 13 16 12 10 10 10 10 10 10 10 9 8 9 10 12 14 16 19
17 24 31 33 29 20 13 12 12 12 14 12 14 18 19 22 23 27 28 25 22 23 24 24 20 14 13
13 16 20 18 18 18 15 15 14 15 18 20 26 32 32 32 34 35 35 36 36 38 39 38 37 36 35
10 11 11 11 11 11 10 11 13 19 27 34 34 34 35 39 43 42 43 44 46 48 49 48 47 45 42
15 13 12 13 12 11 12 13 19 30 40 36 37 37 40 42 45 44 45 46 48 50 52 53 53 52 51
12 12 12 13 14 16 20 28 34 38 38 41 40 42 39 38 39 41 44 50 50 51 51 52 52 53 51
12 12 14 16 20 28 34 37 40 42 43 43 42 41 39 36 38 43 47 48 46 47 52 59 60 58 58
13 14 16 20 25 32 38 41 42 41 42 44 43 41 40 40 42 40 38 39 44 60 65 64 62 62 58
13 14 17 21 27 29 33 36 37 40 39 38 37 37 38 39 40 38 41 47 51 62 70 62 63 63 60
13 13 16 19 21 23 25 27 27 27 29 32 33 35 36 39 42 44 51 55 58 63 68 61 56 59 62
15 16 16 17 19 19 20 21 22 25 28 31 34 38 45 50 56 49 53 52 50 55 64 67 47 47 56
18 18 18 18 19 20 21 22 24 26 29 34 41 56 70 71 48 53 48 48 52 49 58 61 59 42 53

GFSFLT2_850_rhum_066.txt.gz
RH
99 100 100 100 99 89 82 76 76 75 74 73 82 93 92 91 90 81 77 81 88 85 95 97 100 100 99
100 99 99 100 96 88 87 83 82 78 77 71 78 84 86 89 88 87 93 96 99 99 99 97 96 100 99
98 98 99 97 88 91 84 85 84 78 74 67 68 73 74 80 85 86 84 83 84 87 90 92 94 93 90
94 100 100 98 93 92 87 84 78 65 43 24 18 18 28 49 68 77 82 83 82 79 76 75 74 73 76
99 100 100 86 68 74 68 51 29 17 16 14 16 15 11 10 11 13 17 25 38 51 57 60 66 71 73
99 99 78 64 58 47 32 18 14 12 18 16 11 11 12 11 11 10 9 8 7 8 8 9 10 11 12
44 36 32 37 31 26 18 12 13 13 14 14 13 17 19 23 25 27 28 26 24 22 22 21 21 18 13
14 20 21 20 20 16 14 12 12 14 17 16 23 28 29 30 32 33 34 34 36 37 38 37 36 36 35
13 15 13 11 11 11 10 10 9 14 22 28 29 32 33 36 39 40 41 42 43 44 45 45 46 45 44
18 15 13 12 10 10 9 10 12 19 30 35 33 35 37 39 45 41 43 42 43 45 47 47 47 46 46
17 16 15 13 12 12 14 17 26 34 37 37 36 38 39 40 40 39 40 45 49 49 47 47 48 47 46
15 16 15 15 16 18 24 30 35 39 39 40 38 40 38 36 36 40 44 46 44 43 43 47 51 52 55
14 14 15 17 18 24 30 36 40 42 42 41 40 39 37 36 37 36 35 37 39 44 57 58 54 55 56
14 15 16 18 21 23 27 33 38 38 37 36 36 34 32 33 34 34 37 41 45 52 55 48 49 58 59
17 16 17 18 20 21 23 23 26 31 34 33 30 30 31 32 34 37 43 43 47 50 55 43 40 52 56
17 16 16 17 17 17 18 20 22 23 25 27 29 30 33 37 44 46 43 42 43 44 50 52 31 35 41
18 18 18 19 19 18 18 19 20 23 26 28 31 34 41 53 54 54 47 44 45 45 51 52 49 41 50

GFSFLT2_850_rhum_069.txt.gz
RH
100 100 100 100 100 100 96 84 77 77 75 69 75 85 93 97 94 91 84 87 98 99 97 100 99 100 100
100 100 100 99 98 100 97 86 82 80 77 71 72 80 88 88 90 90 94 96 99 100 98 95 94 100 99
100 100 100 99 99 97 86 87 85 85 82 76 67 67 70 76 78 84 87 90 84 93 97 85 83 90 89
97 100 100 100 99 94 91 88 84 80 74 52 28 20 22 39 60 70 78 81 82 82 79 77 74 86 93
100 100 100 100 97 88 88 82 66 42 20 15 16 14 13 12 12 14 22 48 65 72 74 75 75 74 74
99 99 100 99 76 69 64 44 24 15 13 14 13 10 10 10 10 9 8 8 8 10 11 11 11 12 13
90 92 83 64 57 55 41 28 17 13 13 14 12 12 14 15 17 19 20 21 19 16 14 14 14 13 12
23 29 36 37 37 28 25 18 16 14 14 16 15 20 24 26 26 29 30 30 31 32 32 33 32 31 30
13 14 16 18 18 18 14 14 12 12 17 21 23 27 29 32 33 37 38 39 39 39 41 41 41 41 42
17 13 12 13 12 12 12 11 10 11 18 26 32 32 33 38 40 42 41 39 38 38 39 40 40 40 42
20 17 15 14 13 14 13 13 14 21 33 38 34 34 34 38 42 42 37 37 38 41 41 41 41 40 40
17 15 14 15 16 15 17 21 27 30 34 36 37 38 36 35 35 34 38 41 42 40 38 38 39 40 42
14 14 15 16 15 16 19 27 33 36 37 38 38 37 38 36 34 34 35 37 37 37 37 40 46 51 49
14 14 14 15 15 15 19 27 32 36 39 38 36 35 34 32 31 31 33 36 39 44 43 40 42 45 46
17 17 17 17 18 17 18 23 24 29 31 31 30 29 28 28 28 31 34 39 49 48 44 34 34 40 43
21 21 17 16 16 15 16 18 20 22 24 26 26 26 25 26 30 34 43 49 53 47 45 41 27 31 36
22 19 19 18 18 17 17 18 18 20 22 22 23 24 26 29 36 48 56 58 56 56 54 50 37 30 39

GFSFLT2_850_rhum_072.txt.gz
RH
96 98 100 99 100 99 99 99 93 77 75 72 65 77 96 98 96 97 90 86 93 93 100 100 100 100 99
100 100 100 100 100 100 100 100 94 81 81 77 71 69 80 90 95 93 93 96 99 99 100 100 100 99 100
100 99 100 99 99 98 99 100 92 88 86 82 78 72 68 69 80 85 90 93 96 98 85 86 92 97 99
98 100 100 99 99 99 99 98 96 91 87 79 68 41 30 33 50 66 73 82 87 86 85 87 75 71 76
100 100 99 99 99 100 94 95 92 85 72 44 22 17 17 16 14 15 24 50 67 77 80 82 80 74 70
100 100 100 99 100 93 77 80 67 36 20 17 17 15 13 13 11 10 9 8 10 11 19 30 45 55 58
99 99 100 100 83 64 62 53 33 20 13 13 14 14 16 15 15 17 18 15 12 8 6 7 7 7 6
64 81 73 66 52 46 41 27 19 15 14 15 16 18 24 25 25 26 28 27 25 25 23 23 24 24 25
14 18 20 30 32 26 20 16 13 13 16 19 20 24 29 31 32 33 35 35 35 34 35 36 35 35 34
17 17 15 14 12 11 10 9 9 10 15 23 30 31 34 35 37 38 38 39 37 36 35 37 35 34 34
21 20 18 16 13 12 10 9 9 10 22 26 34 34 35 36 37 40 40 35 34 34 35 38 36 35 36
20 17 15 13 13 13 12 13 15 19 24 30 34 36 37 36 36 33 33 33 35 38 38 37 34 33 33
16 15 15 13 12 12 14 16 21 27 30 34 36 37 37 36 37 35 34 34 35 34 34 34 34 36 37
17 16 16 15 15 19 16 15 22 27 32 36 37 36 35 35 33 32 31 32 34 35 35 35 38 38 36
20 18 17 18 18 19 18 16 20 23 26 30 31 31 29 28 26 27 29 32 36 40 42 37 36 38 34
18 18 24 20 18 17 17 16 17 20 21 23 24 24 22 23 24 27 33 42 53 55 53 44 37 37 35
21 32 31 21 20 19 19 19 19 19 20 22 22 22 23 23 28 31 43 64 66 63 69 66 50 38 33

GFSFLT2_850_rhum_075.txt.gz
RH
90 100 99 100 100 99 100 100 100 99 91 78 76 72 85 98 99 99 92 90 93 97 98 92 85 99 99
100 100 100 100 99 100 100 100 99 99 91 79 77 73 72 87 95 96 92 87 91 99 98 97 97 98 95
100 100 100 100 100 99 99 99 98 100 89 84 79 76 73 67 74 86 93 92 86 94 99 100 100 95 98
100 100 100 100 100 100 100 99 99 96 93 87 82 74 62 47 50 63 75 82 88 94 92 89 89 98 99
100 100 99 100 99 100 100 100 98 97 92 85 72 44 21 15 14 14 30 58 76 85 88 84 83 85 76
98 99 100 99 99 98 99 99 92 82 80 53 24 17 17 16 13 11 10 11 14 39 64 74 78 80 78
99 99 98 98 97 100 96 66 72 46 20 17 16 17 17 15 14 14 14 14 10 9 9 10 13 18 25
99 99 100 99 90 76 73 69 46 29 19 15 15 17 18 20 21 21 25 27 26 24 20 17 15 16 16
19 25 38 46 51 49 43 39 24 16 16 16 17 17 23 27 28 30 32 34 33 33 33 34 33 33 32
18 15 16 24 22 22 18 16 12 11 12 17 19 22 28 30 34 36 36 38 39 38 37 36 35 35 34
21 19 17 14 14 11 10 10 10 9 14 15 19 28 31 34 37 39 40 41 37 34 33 32 32 34 35
22 21 20 16 15 12 12 11 11 12 14 23 30 31 33 35 34 34 39 43 37 33 34 36 34 32 31
22 21 20 16 15 13 14 17 20 22 23 26 29 32 34 36 36 35 34 34 34 34 34 33 31 31 30
20 19 18 18 15 16 20 20 22 27 27 29 32 34 35 37 37 36 34 33 31 32 32 32 33 33 34
23 20 18 19 20 19 20 21 23 27 26 26 28 30 31 31 29 28 27 27 29 30 31 32 38 40 38
23 24 23 22 24 23 21 22 24 27 25 23 22 23 23 22 21 23 26 30 36 39 42 43 44 45 44
23 21 23 28 30 23 21 22 22 23 23 22 20 20 22 20 23 25 27 39 55 60 60 58 50 49 50

GFSFLT2_850_rhum_078.txt.gz
RH
97 95 92 92 100 99 99 99 100 100 99 97 86 75 70 75 93 96 90 95 97 92 96 95 59 62 71
100 99 97 100 100 100 100 100 100 99 97 98 87 81 76 71 88 93 88 87 90 100 94 99 100 100 98
100 100 99 100 99 100 100 100 100 99 99 100 88 81 80 74 71 80 90 85 87 87 100 100 90 99 100
100 99 100 99 100 100 100 100 100 99 98 98 91 86 80 72 62 59 66 78 82 87 90 97 100 100 100
100 100 100 99 98 99 100 100 100 99 100 97 93 84 72 44 22 18 27 53 68 78 86 89 90 92 98
99 99 99 99 100 100 100 100 99 98 100 94 84 64 31 18 14 14 13 12 27 58 76 84 86 83 82
99 100 100 99 100 99 98 98 100 81 49 72 41 23 18 16 13 11 12 10 9 11 14 38 58 69 73
99 99 99 99 98 99 100 99 77 64 48 27 17 16 16 16 17 16 18 21 19 17 12 8 8 8 8
72 77 92 99 99 93 87 72 64 44 24 19 16 17 19 21 22 24 25 28 28 27 28 28 28 27 26
19 14 17 30 51 62 58 46 36 21 14 16 17 18 21 23 25 29 32 32 35 36 36 37 36 36 35
19 18 20 22 29 28 26 26 21 15 10 15 17 21 32 32 28 32 36 38 39 39 37 36 34 36 35
20 20 20 18 16 16 14 13 14 11 14 22 26 29 32 33 31 31 35 37 38 38 34 32 32 34 35
22 23 23 21 18 16 15 14 14 14 16 20 32 35 35 36 32 31 32 32 33 32 33 33 34 32 30
21 24 23 20 18 15 17 19 22 22 24 27 32 35 35 36 36 35 34 34 30 30 30 31 31 31 31
20 19 20 18 16 15 20 23 23 21 22 24 27 31 33 35 34 33 31 29 28 28 28 28 29 30 32
24 24 20 19 18 20 22 23 23 23 23 22 21 23 26 25 23 22 22 22 24 25 28 30 32 38 44
25 24 25 25 22 27 34 27 23 25 26 24 23 22 22 22 21 21 24 25 27 30 38 46 48 51 54

GFSFLT2_850_rhum_081.txt.gz
RH
100 100 91 93 88 91 100 100 100 100 99 99 99 93 87 73 73 87 91 87 97 94 87 93 90 53 53
99 98 98 95 98 100 100 100 99 100 98 99 95 92 83 76 72 78 92 90 91 95 92 95 99 74 44
100 100 97 97 97 98 98 99 100 99 99 100 99 98 87 80 75 72 79 89 86 90 100 90 99 96 100
100 98 97 98 100 99 100 100 100 100 99 99 96 98 87 82 77 70 67 66 84 89 88 100 100 100 100
100 100 100 99 98 99 100 99 100 100 99 96 98 96 90 82 70 49 32 41 62 78 88 85 95 100 100
99 100 95 98 100 100 99 99 100 99 97 99 97 94 85 69 32 18 15 13 17 52 73 83 83 84 92
100 96 96 98 100 100 100 99 100 96 98 83 84 84 58 24 18 14 11 11 11 13 30 61 77 84 82
100 99 98 98 100 100 98 98 99 99 88 54 34 22 18 18 16 13 14 16 15 11 9 10 15 32 48
99 99 98 98 98 99 98 100 99 84 67 55 29 19 18 19 19 16 19 23 25 21 21 16 11 9 9
80 40 30 61 94 98 96 89 96 68 40 32 20 19 20 20 22 27 25 26 28 29 30 32 32 30 29
31 19 18 22 38 56 57 64 51 40 15 18 16 18 22 33 24 27 35 35 32 32 34 34 34 32 32
23 20 19 20 21 27 30 30 26 18 14 14 19 21 22 27 30 32 35 36 35 34 34 30 30 29 30
22 22 19 20 19 19 16 14 14 13 11 12 18 23 28 34 32 31 30 32 33 34 34 32 29 29 31
21 25 24 22 22 21 17 15 16 15 17 18 20 26 31 32 32 32 33 33 30 29 29 28 29 29 29
23 26 23 23 22 19 16 16 20 26 22 22 24 27 29 30 32 33 33 33 31 30 28 27 27 27 28
24 24 23 20 20 19 16 19 26 25 22 22 23 23 24 26 26 27 26 25 24 23 22 23 24 28 31
26 26 24 22 21 20 18 23 25 26 24 23 24 23 23 22 24 21 21 21 23 24 26 27 31 40 48

GFSFLT2_850_rhum_084.txt.gz
RH
86 88 100 92 99 88 89 94 98 99 99 100 98 98 90 84 83 70 70 86 79 90 83 79 68 76 56
99 100 100 99 85 89 96 99 100 100 98 99 100 98 86 85 81 73 75 81 82 91 95 90 86 92 75
98 98 99 99 99 93 88 100 99 98 99 99 100 97 88 88 83 78 73 71 86 88 92 92 100 95 72
100 99 99 100 99 93 92 93 100 100 100 100 100 96 89 96 84 79 74 68 70 83 88 90 96 100 94
98 99 100 95 86 90 97 99 98 99 99 99 99 93 98 93 86 78 67 48 46 71 85 88 100 100 100
99 100 100 99 97 94 99 99 100 99 99 100 95 98 97 91 81 55 24 14 13 37 70 82 85 96 100
97 99 100 99 99 99 100 100 100 100 98 98 97 85 88 80 41 18 13 11 11 12 32 62 79 84 84
99 100 99 100 99 100 100 100 99 98 99 99 86 50 40 29 21 16 12 13 12 9 11 17 47 70 80
94 96 97 100 100 100 99 97 98 98 99 99 62 42 25 19 18 15 15 20 23 19 16 8 9 11 24
96 98 98 100 99 98 97 98 100 96 80 65 54 24 20 17 20 24 19 22 29 29 28 25 20 15 15
100 94 59 28 34 66 73 89 96 84 32 34 25 19 16 26 20 23 26 28 29 34 35 35 34 32 29
85 47 24 19 21 24 49 78 56 61 48 17 14 13 14 18 27 26 27 30 31 35 36 36 34 32 30
48 25 20 20 20 27 40 34 30 29 22 16 14 15 18 22 22 26 28 30 32 34 35 36 34 30 28
32 29 28 22 22 22 18 17 16 13 12 11 12 18 24 27 27 27 28 29 27 28 30 31 30 29 29
34 32 27 26 26 25 22 18 14 13 13 18 18 19 22 26 27 28 30 29 30 31 30 28 28 27 28
34 28 24 26 27 26 22 17 15 18 26 23 21 22 25 27 26 27 28 28 28 28 26 23 23 24 25
34 32 26 26 31 26 22 18 17 24 27 23 22 23 23 22 24 25 24 22 22 21 21 23 26 28 34

GFSFLT2_850_rhum_087.txt.gz
RH
80 88 94 97 96 98 87 95 94 97 95 98 99 100 100 99 88 80 78 69 67 65 71 77 60 58 64
74 93 99 92 94 99 98 96 100 99 99 99 99 100 99 97 87 83 81 71 69 74 83 82 98 66 76
66 86 98 98 98 95 99 99 90 91 100 100 100 99 100 98 86 84 80 73 69 71 82 91 98 100 72
84 97 99 99 99 99 97 89 88 99 100 100 100 99 99 96 85 91 81 75 72 62 80 95 94 100 89
95 100 100 98 98 98 93 95 96 92 99 99 100 100 99 92 95 91 83 73 60 52 73 86 97 100 100
77 94 94 99 100 98 94 97 100 99 99 99 98 100 95 98 97 89 74 49 30 29 53 81 88 100 100
68 70 87 98 99 99 100 100 100 100 100 100 100 97 95 90 89 72 34 16 13 13 23 63 81 86 96
69 80 98 98 98 100 100 100 100 100 99 99 97 99 81 67 64 31 15 13 12 11 12 26 58 77 84
79 98 100 100 100 100 98 100 99 97 97 98 98 85 53 26 19 16 15 16 16 14 11 12 15 39 63
92 97 98 97 97 96 98 98 94 97 99 100 86 64 42 25 17 19 19 20 23 22 19 14 11 12 11
99 99 95 97 99 99 99 98 98 100 78 77 65 58 29 18 17 22 25 23 25 29 28 31 31 29 26
100 94 89 91 65 37 61 65 70 62 78 67 31 29 25 15 25 20 25 28 28 32 35 35 35 37 35
99 80 72 50 24 22 31 45 53 62 63 56 35 18 18 19 18 22 26 27 29 31 33 34 35 34 32
99 80 55 29 21 21 21 26 41 40 36 27 19 15 19 19 20 23 26 26 28 31 34 34 34 34 31
99 99 56 28 24 23 22 22 24 18 14 15 13 14 17 19 27 27 27 28 30 29 31 30 30 29 28
100 88 49 32 28 26 24 22 18 15 13 13 13 17 20 24 22 24 26 26 29 31 31 30 28 27 26
99 76 47 38 36 32 29 26 22 19 17 18 25 22 22 24 26 30 24 25 27 28 26 23 22 22 24

GFSFLT2_850_rhum_090.txt.gz
RH
67 66 70 80 90 94 93 92 93 85 92 89 89 89 92 100 100 97 88 80 77 71 66 73 74 56 46
69 78 79 88 97 100 94 91 95 95 98 94 97 100 100 100 100 98 86 78 80 72 71 74 80 96 66
73 78 86 92 93 94 97 98 95 100 100 93 94 99 99 99 99 98 88 83 81 72 69 74 83 95 91
76 80 77 79 86 97 97 98 99 99 99 91 91 98 99 98 98 96 88 86 82 74 68 70 84 99 90
72 72 74 75 87 94 99 96 100 99 99 98 100 100 99 98 99 93 89 91 81 70 57 64 83 98 100
68 65 62 68 85 99 98 100 100 90 90 94 98 99 99 99 97 93 95 86 74 60 43 61 84 91 100
65 67 69 67 76 92 98 97 100 93 95 94 98 100 100 98 94 88 88 73 43 18 15 41 81 87 98
75 67 80 73 80 90 99 100 100 99 99 99 99 99 98 97 88 78 74 32 13 12 12 14 59 81 87
75 75 77 83 93 99 99 100 98 98 98 100 99 96 99 94 42 30 16 14 15 14 10 12 25 58 76
76 77 77 89 100 100 100 99 98 99 97 99 97 99 90 57 36 20 17 14 17 18 16 11 12 16 36
87 87 97 99 100 100 98 94 96 95 92 97 98 98 71 17 25 19 19 19 18 22 26 27 22 17 14
96 100 99 98 99 100 100 100 100 100 99 99 59 80 72 48 19 17 19 20 20 30 32 36 36 33 28
99 98 100 100 99 99 100 100 94 100 99 74 70 28 30 42 16 22 16 17 24 28 30 32 35 34 34
99 99 100 99 99 82 51 51 68 68 66 68 71 56 20 19 17 16 20 25 24 26 29 32 34 35 33
100 99 100 100 93 56 35 43 52 54 54 60 64 46 18 21 20 19 22 25 25 27 29 32 33 35 35
100 99 99 100 93 48 37 38 37 37 44 41 36 27 17 21 21 24 26 28 27 27 27 28 29 30 30
99 99 99 98 100 58 36 33 32 34 29 24 22 19 15 21 23 22 23 24 27 28 28 28 29 29 27

GFSFLT2_850_rhum_093.txt.gz
RH
100 97 93 91 94 95 91 92 96 94 92 92 85 87 90 87 89 92 97 95 88 74 71 70 63 57 58
99 89 84 80 82 89 95 98 96 94 93 96 89 88 90 93 94 98 98 94 85 77 73 72 62 61 71
99 81 71 74 75 84 94 97 94 88 96 97 99 88 95 99 100 98 98 96 87 79 76 70 62 65 91
83 76 69 67 74 84 83 83 88 93 99 100 99 83 83 89 91 99 97 94 88 81 80 69 62 69 93
79 76 73 69 69 68 75 84 88 98 94 99 100 89 92 97 98 98 98 92 85 85 77 68 52 78 98
76 80 73 68 74 74 78 82 85 79 91 93 99 99 100 100 100 99 98 87 86 82 73 60 45 82 100
79 77 72 66 79 76 74 75 84 91 87 90 99 95 100 100 100 99 88 87 83 75 46 30 40 79 99
90 82 86 90 98 86 74 83 94 98 99 100 96 96 100 100 99 92 90 77 77 34 15 13 24 74 88
100 100 94 87 95 83 79 99 100 98 100 100 100 100 100 100 93 94 81 63 42 15 13 12 12 52 80
90 90 87 88 89 82 86 98 96 100 100 100 100 100 98 95 97 95 42 21 17 16 16 11 12 21 56
95 94 94 94 86 92 98 99 99 99 98 99 98 99 98 74 55 68 33 21 19 20 22 17 12 13 17
99 93 88 87 96 100 98 100 100 100 100 100 96 97 99 100 40 29 30 24 26 26 27 28 22 14 11
99 97 90 95 100 100 99 99 99 99 99 99 98 100 75 90 82 40 23 22 26 33 32 33 35 25 23
100 100 100 100 99 99 99 100 99 100 100 99 100 98 71 40 49 32 27 26 25 30 33 34 34 33 34
100 99 100 100 100 100 100 100 100 99 99 94 92 79 91 46 24 26 22 26 29 28 34 34 32 34 34
100 99 99 99 99 99 99 97 65 48 59 81 65 68 84 61 23 22 24 28 31 29 34 36 34 34 33
99 99 99 99 99 99 98 92 49 46 62 76 64 66 76 63 20 24 26 27 31 31 29 29 30 30 31

GFSFLT2_850_rhum_096.txt.gz
RH
98 100 99 100 100 98 91 92 97 92 85 84 88 90 90 82 83 90 89 89 94 94 87 70 70 68 65
99 98 98 97 100 98 93 98 100 97 93 91 92 91 89 78 91 89 92 96 98 92 80 75 71 69 60
100 98 99 100 99 100 100 100 99 100 96 93 94 95 92 92 96 93 97 99 89 79 81 75 72 70 59
100 99 100 100 94 92 90 100 100 99 96 93 91 99 98 91 87 93 99 97 94 88 81 78 76 66 59
100 97 96 97 90 97 97 100 98 96 90 90 99 100 100 96 85 96 97 92 93 90 83 79 73 59 80
100 99 84 78 84 88 84 86 94 83 90 89 96 97 99 100 100 100 99 99 98 84 82 77 68 49 87
100 94 80 74 83 91 83 81 75 78 79 82 97 100 100 100 100 99 100 100 90 85 79 72 51 42 88
100 98 98 93 92 88 89 89 90 91 94 94 94 97 100 100 99 99 99 98 90 83 75 41 23 35 81
100 100 100 95 97 90 91 90 89 92 94 100 99 100 100 100 100 100 100 90 92 68 56 18 12 26 76
99 100 100 100 100 99 94 92 90 97 90 100 99 100 100 99 99 96 94 97 73 43 18 11 10 14 62
100 100 100 98 99 98 96 88 84 93 94 99 98 100 100 83 78 89 95 95 34 18 13 12 10 12 36
100 100 100 100 97 96 93 95 96 98 99 100 99 91 94 92 95 91 54 71 29 20 17 17 10 12 16
100 100 99 100 98 100 100 100 99 99 100 99 100 95 94 98 95 99 29 43 27 20 26 24 22 16 14
100 100 100 100 100 100 100 100 100 100 99 99 100 98 98 99 84 92 85 29 25 22 33 31 29 26 26
99 99 100 100 100 100 100 100 100 99 99 100 100 99 98 99 78 56 59 26 26 23 29 31 31 34 34
100 100 100 99 99 100 100 100 100 99 99 100 99 100 100 96 89 30 39 24 24 29 29 35 33 34 36
98 100 100 100 100 99 99 99 99 99 98 100 100 100 100 92 82 72 21 19 25 31 29 32 32 37 37

GFSFLT2_850_rhum_099.txt.gz
RH
100 93 85 87 93 100 100 100 100 96 89 88 89 88 87 89 90 86 79 87 86 88 85 87 83 71 68
97 94 94 87 92 100 100 100 99 95 94 95 98 92 95 95 92 84 75 94 93 89 92 86 77 71 69
100 96 99 100 100 99 100 100 100 100 99 100 100 99 97 96 94 86 96 89 96 98 93 81 79 72 68
99 100 100 100 100 99 98 99 100 100 99 99 100 100 100 98 99 97 94 99 100 99 94 88 80 74 71
100 100 100 100 98 98 100 100 100 100 99 99 100 99 94 100 100 98 96 99 100 94 85 87 78 75 66
98 98 95 100 100 100 99 100 99 99 100 100 100 96 98 99 99 100 100 100 99 90 91 82 78 70 54
100 98 99 98 99 99 99 95 85 89 96 98 98 92 97 94 98 98 98 98 99 99 87 81 72 62 54
100 100 98 99 100 99 91 90 93 100 99 86 85 83 83 98 99 99 98 99 100 98 86 79 65 41 64
100 100 100 100 100 99 99 100 100 99 100 97 95 88 96 100 100 100 100 100 97 88 86 70 41 22 66
99 100 100 100 100 98 90 95 98 98 93 97 94 97 100 99 100 99 100 100 98 89 84 59 21 14 54
96 98 100 99 100 100 98 96 89 94 88 95 95 100 99 92 100 100 99 99 93 94 50 25 12 12 35
100 98 100 100 98 100 100 98 100 100 100 98 90 90 98 98 85 92 97 97 97 90 23 15 13 12 18
98 100 98 100 100 100 100 100 100 100 100 100 96 96 93 98 97 90 97 79 82 68 22 19 16 13 14
98 99 100 100 100 100 100 100 100 99 100 100 100 99 98 99 94 96 94 57 57 44 26 25 22 20 16
99 99 100 100 99 100 99 100 100 99 100 100 100 100 100 96 97 98 86 86 43 34 26 30 29 26 23
98 99 99 100 100 100 100 100 100 100 100 100 100 100 100 100 99 99 74 77 45 27 26 31 30 33 32
98 98 99 99 100 99 99 100 100 100 99 100 99 99 99 99 99 99 62 46 33 31 29 27 29 31 34

GFSFLT2_850_rhum_102.txt.gz
RH
88 88 97 100 98 97 90 95 98 100 100 100 92 92 88 87 96 91 91 94 84 83 91 90 84 85 81
99 100 88 95 99 98 96 96 99 100 100 98 97 93 88 96 93 88 90 86 85 81 93 90 86 89 80
96 95 97 98 100 97 99 99 100 100 100 100 94 91 97 99 93 93 92 90 77 97 90 93 94 85 79
100 100 100 98 95 100 100 99 99 99 100 98 98 100 100 98 97 96 94 90 98 96 94 99 95 86 80
100 98 99 100 98 87 100 100 100 100 98 100 99 100 100 100 98 98 96 92 100 100 100 97 89 81 77
100 100 99 98 100 99 100 100 100 99 100 100 98 98 99 98 98 98 91 100 100 99 99 95 86 81 76
95 98 100 98 100 100 100 100 97 96 100 100 100 97 98 99 100 99 98 99 98 100 97 90 85 78 74
100 98 96 98 100 100 99 99 100 100 100 100 100 98 98 100 100 100 99 98 99 99 100 94 82 78 66
94 100 99 90 100 100 100 100 100 100 99 100 100 99 100 100 97 94 97 98 98 100 100 92 83 72 44
41 88 100 100 97 98 100 100 100 100 99 100 100 97 100 98 94 94 98 99 98 99 100 88 83 60 29
54 51 94 98 100 98 97 100 100 99 95 100 99 95 90 92 91 94 98 100 98 99 100 90 73 41 20
50 56 64 97 99 100 91 100 100 100 98 97 92 88 92 96 89 94 99 100 100 100 94 90 48 25 15
100 99 99 77 96 100 100 100 100 100 100 100 97 89 93 92 91 88 99 100 100 99 93 84 19 14 14
95 99 99 94 78 99 100 100 100 100 100 100 100 100 100 100 100 94 85 98 97 98 94 65 22 16 15
93 96 96 96 95 98 100 100 100 99 100 100 100 100 100 99 100 100 89 91 90 74 85 48 28 27 21
95 95 99 100 98 99 99 100 100 99 99 100 99 100 99 99 100 99 96 98 90 45 75 38 35 36 27
88 97 98 100 98 96 98 99 99 99 100 100 100 99 99 99 99 99 95 99 85 66 55 43 36 33 30

GFSFLT2_850_rhum_105.txt.gz
RH
97 91 93 92 88 90 95 91 99 99 98 91 87 97 99 100 100 97 100 99 99 94 87 78 80 79 77
97 100 95 99 100 91 96 92 95 89 84 88 87 99 100 100 95 95 99 100 94 92 88 82 80 82 79
100 95 95 96 99 99 96 92 91 88 94 98 96 100 100 100 94 95 96 96 85 88 82 74 78 86 86
98 100 100 100 100 99 98 98 96 97 100 100 100 100 97 92 94 88 89 90 90 88 84 72 82 81 89
85 88 89 98 100 100 98 99 100 100 100 99 99 99 100 99 93 96 93 93 93 90 86 78 87 85 90
100 99 99 98 99 96 100 99 100 98 100 100 100 100 99 96 92 94 96 98 97 92 75 93 77 88 87
97 98 98 100 99 100 98 100 99 99 100 100 100 100 100 100 100 97 98 99 98 88 62 79 83 88 82
67 89 99 98 100 100 100 98 100 98 100 100 99 100 100 99 100 98 99 100 94 80 62 83 84 83 84
87 91 63 55 96 100 99 100 99 98 97 100 99 100 100 100 100 100 100 99 90 81 94 94 75 86 80
29 31 27 30 37 73 99 100 100 100 99 100 99 100 100 100 99 100 100 100 97 86 89 97 100 87 81
42 20 18 25 23 27 91 100 100 100 99 100 100 100 100 99 99 100 100 100 96 92 97 97 98 90 81
78 89 88 74 83 94 74 92 100 100 100 100 99 100 99 99 100 100 100 99 86 94 97 97 99 88 76
99 100 99 100 98 87 98 92 89 99 100 100 99 100 100 100 95 96 98 96 98 100 100 100 96 89 68
99 95 97 96 100 99 100 100 100 88 98 99 99 100 100 100 100 99 100 96 98 100 99 100 98 92 51
94 94 100 91 95 100 100 99 100 97 92 99 99 100 99 100 100 100 100 100 100 99 99 100 96 76 22
92 95 94 94 99 100 100 100 100 100 96 99 99 99 99 100 100 100 100 100 100 100 100 99 96 65 24
94 95 95 95 98 100 100 100 100 100 99 99 99 99 99 99 99 100 99 99 99 99 92 93 92 49 27

GFSFLT2_850_rhum_108.txt.gz
RH
91 90 90 94 95 87 88 89 89 83 83 83 80 79 87 86 91 94 100 100 99 98 96 96 74 61 63
100 100 99 99 96 100 100 97 100 96 92 97 89 95 95 94 95 98 100 100 100 98 95 88 70 64 66
88 97 100 100 99 100 100 100 100 100 98 96 93 93 91 93 96 100 100 100 96 85 96 81 69 64 62
58 80 80 88 99 99 98 99 98 98 97 94 94 94 93 89 92 99 100 99 100 96 90 80 74 70 62
30 49 82 91 96 92 92 92 95 89 83 88 99 98 89 96 100 100 97 95 97 93 83 82 79 76 68
46 76 78 96 100 99 100 98 96 78 79 84 95 99 100 99 98 100 100 100 97 86 85 84 78 69 52
73 74 85 90 97 99 99 100 100 99 98 95 94 98 99 100 100 100 100 100 94 92 91 88 84 67 62
82 88 87 62 77 92 95 99 99 98 100 100 97 98 98 100 100 100 100 99 98 97 98 97 86 67 73
61 66 78 70 43 43 40 67 82 90 98 100 98 99 99 96 99 100 100 100 100 100 99 98 84 68 67
32 33 34 26 21 37 90 95 99 100 91 97 100 99 100 98 97 99 100 100 100 100 100 99 83 65 58
92 62 35 42 51 53 48 94 99 98 99 100 98 99 100 99 98 100 99 100 100 100 100 100 85 66 59
99 96 83 94 81 98 100 92 95 100 98 100 100 100 100 100 100 99 100 100 100 100 100 100 96 83 67
99 100 99 96 98 100 98 94 72 55 93 99 100 99 99 99 99 98 100 99 98 100 100 100 93 81 67
95 84 90 88 100 100 90 100 99 100 99 100 99 100 100 100 99 99 99 99 99 99 100 100 99 95 76
94 89 83 86 87 90 98 99 99 99 98 100 100 100 100 100 100 100 100 100 100 99 100 100 100 100 93
88 83 83 87 89 91 99 95 99 99 96 100 100 100 97 100 100 100 99 99 100 100 100 100 100 100 100
97 93 84 88 90 89 94 97 96 100 99 99 99 99 99 99 96 100 100 100 99 100 100 100 100 100 99

GFSFLT2_850_rhum_111.txt.gz
RH
98 100 100 99 94 90 94 93 92 90 90 90 90 90 87 80 82 83 75 69 75 88 99 100 100 93 86
85 76 96 100 100 100 100 100 100 93 96 98 100 99 98 97 91 86 82 81 91 92 99 99 97 95 91
75 66 78 86 89 98 100 100 100 100 100 100 100 99 97 99 99 93 91 94 95 98 98 100 96 99 94
32 39 70 77 82 80 80 96 98 100 99 100 100 97 90 89 89 88 84 88 96 98 99 100 100 99 89
41 40 50 63 90 99 97 89 80 91 95 96 90 84 86 98 90 83 78 84 90 100 100 100 99 98 82
79 76 51 61 82 84 94 99 98 92 89 84 86 78 86 89 84 76 86 88 100 100 100 99 100 94 83
85 89 91 93 79 58 70 88 93 97 100 97 99 90 89 89 91 91 97 99 100 100 100 100 100 92 84
63 76 84 92 98 93 79 67 55 49 81 98 96 97 96 90 97 100 100 100 100 100 100 100 98 92 88
75 76 63 64 65 61 40 53 91 60 43 99 97 88 89 97 99 97 100 100 100 100 100 100 100 97 92
72 76 80 69 54 56 63 85 100 98 80 100 97 97 96 77 89 99 99 100 100 100 100 100 100 100 98
87 94 94 86 73 73 97 100 100 99 89 97 99 100 100 92 86 98 98 95 99 100 100 100 100 98 99
95 79 76 82 68 58 89 100 100 100 99 94 98 95 98 100 96 92 99 99 100 100 100 100 100 100 99
84 79 84 93 78 80 83 99 96 88 79 72 88 81 94 98 100 98 100 98 98 99 100 100 99 98 99
97 97 93 95 86 80 86 85 87 62 85 100 99 100 100 98 99 98 100 100 99 98 99 100 100 100 100
88 95 93 89 86 86 88 90 91 90 92 98 100 99 100 100 98 100 98 100 99 99 100 100 100 99 100
93 90 93 98 86 85 90 96 92 88 90 98 99 94 98 98 100 99 98 100 99 100 98 100 100 100 100
97 95 96 91 95 98 89 92 92 96 95 95 100 99 99 100 98 100 100 97 99 100 99 100 98 98 100

GFSFLT2_850_rhum_114.txt.gz
RH
93 92 87 91 100 100 100 98 99 99 100 100 100 95 93 94 91 93 93 87 96 90 76 89 99 96 93
42 61 72 72 94 94 99 100 100 100 100 95 97 100 95 94 94 92 93 88 88 94 92 80 92 87 86
49 39 43 50 56 79 92 98 100 100 100 100 100 100 97 100 100 96 93 92 88 88 87 87 94 95 91
30 29 35 38 62 81 68 88 94 94 96 100 100 100 100 100 100 100 99 100 100 100 99 100 100 100 99
35 34 38 42 63 61 70 65 68 99 96 98 98 97 100 97 100 100 97 99 98 99 96 100 100 100 100
55 78 75 84 83 87 70 54 69 58 89 84 95 93 94 93 96 100 100 100 94 84 89 97 100 100 100
78 62 78 87 99 98 84 82 74 45 50 53 74 82 86 85 93 96 97 98 93 91 90 98 100 100 100
82 74 74 68 87 81 74 66 55 29 36 72 40 38 62 68 79 95 100 94 93 98 96 100 100 100 100
85 79 71 82 81 80 64 60 57 32 19 95 31 59 48 36 53 78 100 100 100 100 92 100 100 100 100
86 90 81 76 89 92 82 92 100 98 94 100 90 94 98 94 79 56 82 100 100 100 100 100 100 100 100
84 72 75 90 86 73 73 80 100 94 98 99 95 82 92 96 89 93 92 92 99 100 100 100 100 100 99
74 74 67 62 69 85 75 73 85 99 98 92 97 89 89 94 87 63 77 78 96 100 100 100 100 100 100
82 85 84 92 94 94 81 77 79 87 94 83 85 99 100 100 97 91 83 96 97 100 100 100 100 99 99
87 80 76 79 94 94 80 76 84 72 67 65 94 100 100 98 100 99 96 93 97 98 96 100 100 100 100
88 86 88 90 89 88 90 83 89 89 80 78 85 97 97 96 98 100 99 84 85 94 100 100 100 100 99
94 94 92 93 92 94 92 88 89 88 87 77 87 92 91 91 96 93 87 78 81 89 98 99 100 100 99
88 91 96 95 98 96 93 97 96 89 86 92 97 97 98 98 90 90 92 83 80 85 99 100 99 98 84

GFSFLT2_850_rhum_120.txt.gz
RH
34 23 20 19 13 12 14 25 76 76 97 98 94 98 100 100 99 99 99 99 97 96 88 90 93 94 100
37 34 32 33 27 22 22 19 30 45 84 99 88 99 100 100 100 100 97 97 100 98 90 90 92 94 93
69 43 42 41 36 35 28 21 14 19 39 71 92 94 100 100 100 100 100 99 98 100 99 98 96 94 92
82 68 54 45 50 44 30 33 25 20 21 45 66 82 89 97 100 100 99 100 100 99 94 98 98 95 93
92 100 86 70 71 69 61 51 30 35 27 17 13 13 36 74 87 99 100 100 100 100 100 100 100 100 99
96 90 79 74 72 85 88 90 99 53 58 29 24 16 14 16 26 84 93 100 100 100 100 100 100 100 100
82 77 78 86 95 93 98 97 94 80 81 64 30 28 22 15 26 28 64 90 99 100 100 100 100 99 99
79 80 92 98 96 96 94 90 92 75 75 74 52 84 50 43 96 100 74 56 77 93 98 100 100 100 100
82 86 84 90 81 73 70 91 93 83 69 100 86 68 42 22 48 100 100 100 84 77 96 94 94 100 100
87 79 77 71 63 64 84 95 99 100 83 87 80 82 86 35 42 56 73 85 95 99 94 94 95 94 98
88 82 71 60 60 64 66 79 87 100 77 99 91 77 90 93 46 23 21 17 38 67 93 90 93 95 97
70 68 70 68 64 61 63 67 83 97 95 96 91 79 81 86 71 35 28 20 19 17 72 98 98 95 100
66 71 78 77 72 68 66 72 78 88 95 88 86 78 85 90 85 57 54 29 28 19 28 93 100 99 99
70 75 85 80 79 74 74 82 88 75 76 82 80 84 87 89 87 70 77 82 46 38 67 89 100 100 100
80 77 79 100 99 79 76 84 95 94 80 73 78 83 96 96 84 68 87 83 66 43 43 56 98 100 100
93 91 91 97 93 84 86 100 98 92 89 84 85 85 81 77 87 84 85 89 86 82 81 70 61 96 100
95 96 97 98 96 99 100 98 87 81 86 88 90 93 88 95 74 76 100 96 97 98 93 90 69 56 98

GFSFLT2_850_rhum_123.txt.gz
RH
23 24 32 36 28 26 21 17 14 12 10 13 34 83 90 86 96 100 100 100 100 94 98 98 98 99 91
61 41 37 41 39 28 27 24 20 18 16 14 16 22 59 92 94 95 99 100 100 99 99 94 99 95 89
88 53 50 41 40 36 30 25 25 22 20 21 19 16 15 24 82 93 94 100 100 100 99 99 98 98 98
97 97 92 57 51 68 53 60 36 37 33 29 19 15 15 15 12 68 94 96 100 100 100 100 100 99 100
100 100 98 93 86 82 94 71 86 85 50 32 26 22 14 13 15 12 35 80 96 98 100 100 100 100 100
100 99 96 97 97 100 95 100 100 86 92 41 41 32 25 20 31 50 41 53 73 97 100 100 100 100 100
99 90 94 97 99 98 99 98 94 58 80 90 43 50 36 27 26 96 100 81 37 71 95 97 100 100 100
83 78 86 98 100 100 95 78 67 53 79 99 59 96 48 34 29 28 92 100 98 79 60 97 97 98 100
87 96 99 100 98 88 86 85 78 63 48 98 95 96 62 39 37 39 50 41 57 77 92 83 96 94 98
100 93 83 86 78 67 69 90 99 96 80 95 100 100 98 71 49 37 33 27 22 25 51 77 91 97 100
77 64 60 58 65 69 69 73 76 76 57 99 100 99 100 100 69 48 40 32 27 20 18 26 85 100 99
60 60 75 68 66 68 71 71 74 74 66 83 100 99 98 95 80 52 43 36 34 28 23 19 61 100 98
73 72 71 69 66 66 67 67 65 69 75 84 92 96 100 96 83 62 59 40 39 57 59 44 54 99 100
80 78 79 81 96 100 100 81 82 70 71 73 84 97 95 88 83 69 75 87 43 39 46 38 40 96 100
87 88 90 94 100 98 90 86 100 100 83 70 80 93 89 77 84 75 79 81 84 85 87 75 39 55 100
90 91 93 96 98 94 93 100 100 100 86 79 92 87 75 67 69 70 85 89 97 100 100 100 76 40 82
94 94 95 94 97 96 93 94 100 91 84 86 94 99 100 100 85 79 99 97 86 81 90 99 100 82 50

GFSFLT2_850_rhum_129.txt.gz
RH
51 64 57 63 61 80 63 40 30 19 13 10 9 9 10 12 11 10 10 8 7 6 32 83 88 96 100
54 72 74 70 68 65 59 59 72 77 88 29 23 20 16 12 11 10 12 11 10 11 8 28 82 85 90
80 83 85 82 76 69 62 70 55 80 32 37 96 54 20 16 15 13 13 14 12 11 13 13 32 83 84
92 81 86 82 84 84 83 70 84 46 33 81 63 47 34 30 21 24 28 17 16 20 19 16 23 29 84
91 93 83 85 84 85 85 93 70 61 67 84 59 32 30 29 34 62 39 22 22 37 20 16 22 43 41
94 93 93 89 90 93 95 85 94 81 82 71 52 47 46 50 61 83 43 36 42 28 26 24 20 22 57
97 93 96 96 94 94 90 91 90 87 84 85 78 71 55 54 67 68 54 78 70 32 28 26 26 22 17
93 92 96 99 98 96 94 92 90 88 90 89 88 72 87 76 38 35 89 95 80 42 32 28 26 25 20
95 96 97 100 98 94 97 98 96 89 88 84 83 91 73 53 43 66 95 83 92 87 76 35 30 29 24
88 86 90 91 92 93 91 95 95 99 92 96 95 87 100 88 70 64 61 77 94 88 64 40 40 44 46
88 88 90 82 82 90 91 95 99 96 88 100 96 94 100 98 90 82 71 81 76 61 51 44 64 100 78
93 87 84 87 88 91 94 92 90 85 73 100 100 100 100 97 97 85 80 79 79 77 60 68 67 84 98
87 93 90 91 92 85 85 87 91 93 91 97 100 100 100 98 97 93 99 80 80 79 83 77 74 86 78
100 95 98 100 100 98 98 96 98 94 93 86 87 95 97 98 100 93 97 100 80 84 80 77 76 84 77
100 100 100 100 100 100 100 100 100 99 94 91 95 96 97 97 95 95 87 88 85 82 81 80 63 58 57
100 100 100 100 100 100 100 97 96 95 97 96 95 95 91 85 99 99 96 92 94 90 85 94 83 65 70
98 100 100 100 100 100 100 100 98 96 96 98 96 95 100 100 85 84 97 83 81 75 80 86 99 72 80